Regional Weather Roundup
Issued by NWS

Home | Current Version | Previous Version | Graphics & Text | Print | Product List | Glossary On
Versions: 1 2 3 4 5 6 7 8 9 10 11 12 13 14 15 16 17 18 19 20 21 22 23 24 25 26 27 28 29 30 31 32 33 34 35 36 37 38 39 40 41 42 43 44 45 46 47 48 49 50
000
ASUS43 KMKX 242011
RWRWI

WISCONSIN REGIONAL WEATHER ROUNDUP
NATIONAL WEATHER SERVICE MILWAUKEE/SULLIVAN WI
300 PM CDT FRI MAR 24 2017

NOTE: "FAIR" INDICATES FEW OR NO CLOUDS BELOW 12,000 FEET WITH NO
SIGNIFICANT WEATHER AND/OR OBSTRUCTIONS TO VISIBILITY.

WIZ001-002-006>008-014>016-023>028-242100-
NORTHWEST WISCONSIN

CITY           SKY/WX    TMP DP  RH WIND       PRES   REMARKS
SUPERIOR ARPT  CLOUDY    39  33  79 E8        30.13R WCI  33
ASHLAND        CLOUDY    38  32  79 N9        30.12R WCI  31
HAYWARD        CLOUDY    40  33  76 NE10      30.08R WCI  33
SIREN          CLOUDY    40  33  76 NE9       30.09R WCI  34
CUMBERLAND     CLOUDY    37  34  87 N8        30.06S WCI  31
RICE LAKE      CLOUDY    40  36  83 N7        30.07F
CHETEK         CLOUDY    40  36  84 N6        30.07R
LADYSMITH      CLOUDY    39  36  88 N10       30.07R WCI  32
EAU CLAIRE     CLOUDY    40  37  89 NE8       30.04R WCI  34
MENOMONIE      CLOUDY    42  38  83 N7        30.05S
NEW RICHMOND   CLOUDY    42  35  76 NE8       30.07R
OSCEOLA        CLOUDY    44  35  73 N5        30.11R
$$

WIZ003>005-009-010-017-018-242100-
NORTH CENTRAL WISCONSIN

CITY           SKY/WX    TMP DP  RH WIND       PRES   REMARKS
MANITOWISH WTR CLOUDY    33  33 100 NE7       30.05S FOG     WCI  27
ARBOR VITAE    CLOUDY    37  36  96 NE7       30.03S FOG     WCI  31
WOODRUFF       CLOUDY    37  36  96 NE7       30.03S FOG     WCI  31
RHINELANDER    CLOUDY    37  35  92 N6        30.04R FOG     WCI  32
EAGLE RIVER    CLOUDY    34  34 100 N5        30.04R FOG     WCI  30
LAND O LAKES   FOG       34  34 100 N6        30.06R VSB 1   WCI  29
PHILLIPS       CLOUDY    35  34  97 NE10      30.04R WCI  27
TOMAHAWK       CLOUDY    36  34  92 N6        30.04R FOG     WCI  31
MEDFORD        RAIN      37  35  92 NE7       30.02R WCI  31
MERRILL        LGT RAIN  37  37  97 NE6       30.04R WCI  33
$$

WIZ029-030-035-036-043>047-242100-
CENTRAL WISCONSIN

CITY           SKY/WX    TMP DP  RH WIND       PRES   REMARKS
WAUSAU         RAIN      38  36  92 N6        30.02R FOG     WCI  33
MOSINEE        LGT RAIN  37  37 100 N10       30.03R FOG     WCI  30
MARSHFIELD     LGT RAIN  38  37  97 NE9       30.00R FOG     WCI  31
STEVENS POINT  LGT RAIN  36  36 100 NE8       30.02S WCI  29
WAUPACA        CLOUDY    39  37  93 N9        30.02R FOG     WCI  33
WAUTOMA        LGT RAIN  39  36  89 NE8       30.03R WCI  33
WISC RAPIDS    LGT RAIN  38  38 100 NE8       30.04R FOG     WCI  32
CAMP DOUGLAS   CLOUDY    41  39  93 N7        30.00R
$$

WIZ011>013-019>022-031-037>040-048>050-242100-
NORTHEAST WISCONSIN

CITY           SKY/WX    TMP DP  RH WIND       PRES   REMARKS
ANTIGO         LGT RAIN  35  35  99 NE7       30.03R WCI  29
SHAWANO        RAIN      38  36  91 NE3       30.03S
OCONTO         CLOUDY    37  35  95 N6        30.04R WCI  32
STURGEON BAY   RAIN      35  34  96 N8        30.05R FOG     WCI  29
GREEN BAY      LGT RAIN  37  36  96 NE18G24   30.03R FOG     WCI  27
MANITOWOC      CLOUDY    39  34  82 NE9G17    30.01R WCI  33
APPLETON       CLOUDY    37  37 100 NE12      29.99R FOG     WCI  30
CLINTONVILLE   DRIZZLE   36  36 100 NE6       30.04R WCI  31
OSHKOSH        CLOUDY    40  34  79 NE13      29.99R WCI  32
$$

WIZ032>034-041-042-053>061-242100-
SOUTHWEST WISCONSIN

CITY           SKY/WX    TMP DP  RH WIND       PRES   REMARKS
LA CROSSE      CLOUDY    44  41  89 N12       29.99F FOG
SPARTA         CLOUDY    41  40  97 N6        30.02S
VIROQUA        CLOUDY    42  41  98 N13       29.96S
BOSCOBEL       CLOUDY    55  45  68 N8        29.94R
PRAIRIE DU CHI CLOUDY    48  41  76 NW12      29.93F
PLATTEVILLE    CLOUDY    58  51  76 N12       29.90F
$$

WIZ056-057-062-063-064-067-068-242100-
SOUTH CENTRAL WISCONSIN

CITY           SKY/WX    TMP DP  RH WIND       PRES   REMARKS
REEDSBURG      CLOUDY    47  42  84 N10       29.96R
BARABOO/DELLS  CLOUDY    46  38  76 NE13      29.97R
LONE ROCK      CLOUDY    54  44  69 N8        29.92S HAZE
MINERAL POINT  CLOUDY    59  50  72 N8        29.91F
MADISON        CLOUDY    58  47  66 N13       29.93R
MIDDLETON      CLOUDY    58  49  69 N9        29.93R
WATERTOWN      PTSUNNY   60  50  69 N8        29.91R
MONROE         PTSUNNY   72  48  43 W18       29.88S
JANESVILLE     PTSUNNY   75  48  38 W14G20    29.87S
$$

WIZ051-052-058>065-066-070>072-242100-
SOUTHEAST WISCONSIN

CITY           SKY/WX    TMP DP  RH WIND       PRES   REMARKS
MILWAUKEE      CLOUDY    45  36  70 NE16G28   29.94R
WAUKESHA       MOSUNNY   63  48  59 E13       29.90F
MILWAUKEE/TIMM CLOUDY    48  36  61 E15       29.94R
RACINE         PTSUNNY   47  39  74 N17       29.95R
KENOSHA        CLOUDY    56  44  64 NE17G26   29.90R
FOND DU LAC    CLOUDY    43  36  76 N17       29.97R
SHEBOYGAN      CLOUDY    42  35  76 NE17      29.98R
WEST BEND      MOSUNNY   50  43  76 E10       29.94R
JUNEAU         CLOUDY    51  43  75 N10       29.95R
$$

LSZ147-162-242100-
LAKE SUPERIOR

STATION/POSITION TIME  TEMP    WIND        PRES    WAVE
                       AIR SEA DIR/SP/G            HT/PER
                 (UTC) (F)     (DEG/KT/KT) (MB)    (FT/S)
DEVILS ISLAND    2000   36      10/  9/  9 1021.0R
PORT WING        1940   36      20/  5/  6 1020.3R
SAXON HARBOR     1940   35     330/  3/  5 1019.3S
$$

LMZ867-665-643>646-242100-
LAKE MICHIGAN

STATION/POSITION TIME  TEMP    WIND        PRES    WAVE
                       AIR SEA DIR/SP/G            HT/PER
                 (UTC) (F)     (DEG/KT/KT) (MB)    (FT/S)
CHAMBERS ISLAND  1940   33      10/  8/ 11 1016.3R
NORTHPORT PIER   1940   34     350/  8/ 11 1016.6S
SISTER BAY       1950   35      20/  9/ 11   N/A
KEWAUNEE LAKESHO 1948   36      30/ 10/ 16 1015.5R
SHEBOYGAN LAKESH 2000   37      10/ 16/ 17 1015.5R
PORT WASHINGTON  1941   41      40/ 19/ 25 1015.2R
MILWAUKEE LAKESH 1950   40      30/ 16/ 18   N/A
KENOSHA   LAKESH 2000   42     360/ 12/ 16 1012.9
$$

TC  - TEMPERATURE IN CELSIUS
VSB - VISIBILITY IN STATUTE MILES
WCI - WIND CHILL INDEX
HX  - HEAT INDEX




USA.gov is the U.S. government's official web portal to all federal, state and local government web resources and services.